Location: Saratoga Springs
(43.0831°N, 73.7850°W)
Time: 12:31:50
(UTC-04:00)

Vanguard 1 Rocket - Pass Details

Date: 21 April 2024
Orbit: 651 x 4220 km, 34.3° (Epoch: 19 May)

Event Time Altitude Azimuth Distance (km) Brightness Sun altitude
Rises 23:02:49 0° 266° (W) 3,767 10.9 -29.1°
Reaches altitude 10° 23:05:09 10° 258° (WSW) 3,089 10.3 -29.3°
Enters shadow 23:11:12 37° 205° (SSW) 2,336 9.1 -29.8°
